����,���ϕ���(m/s),���ϕ���,�ő�u�ԕ���(m/s),�ő啗��������,�C��(��),���x(%),10���Ԉړ��ώZ�J��(mm),1���Ԉړ��ώZ�J��(mm),���J��(mm),�݌v�J��(mm),����(���ώZ)(MJ/m2),����(���ώZ)(min),���n�C��(hPa),�C�ʋC��(hPa)
2022-02-07T00:00:00+09:00,0.3,��,0.8,���쐼,-0.9,88.6,0,0,0,0,6.39,87,1009.9,1024.7
2022-02-07T00:01:00+09:00,0.3,��,0.8,���쐼,-0.7,89.2,0,0,0,0,0,0,1009.9,1024.7
2022-02-07T00:02:00+09:00,0.2,�É�,0.8,���쐼,-0.8,89.4,0,0,0,0,0,0,1009.9,1024.7
2022-02-07T00:03:00+09:00,0.2,�É�,0.8,���쐼,-0.9,89.1,0,0,0,0,0,0,1009.9,1024.7
2022-02-07T00:04:00+09:00,0.2,�É�,0.5,���k��,-1,88.8,0,0,0,0,0,0,1010,1024.8
2022-02-07T00:05:00+09:00,0.2,�É�,0.4,�k�k��,-1,88.8,0,0,0,0,0,0,1010,1024.8
2022-02-07T00:06:00+09:00,0.2,�É�,0.4,�k�k��,-1,89.1,0,0,0,0,0,0,1010,1024.8
2022-02-07T00:07:00+09:00,0.2,�É�,0.4,�k�k��,-1,89.3,0,0,0,0,0,0,1010,1024.8
2022-02-07T00:08:00+09:00,0.2,�É�,0.4,�k�k��,-1,89.4,0,0,0,0,0,0,1010,1024.8
2022-02-07T00:09:00+09:00,0.2,�É�,0.4,�k�k��,-1,89.6,0,0,0,0,0,0,1010,1024.8
2022-02-07T00:10:00+09:00,0.2,�É�,0.4,�k�k��,-1,89.9,0,0,0,0,0,0,1010.1,1024.9
2022-02-07T00:11:00+09:00,0.2,�É�,0.4,�k�k��,-1,90,0,0,0,0,0,0,1010.2,1025
2022-02-07T00:12:00+09:00,0.3,�k��,0.8,���쐼,-1,90,0,0,0,0,0,0,1010.2,1025
2022-02-07T00:13:00+09:00,0.3,�k��,0.8,���쐼,-1,90,0,0,0,0,0,0,1010.1,1024.9
2022-02-07T00:14:00+09:00,0.3,�k��,0.8,���쐼,-1,90.1,0,0,0,0,0,0,1010.1,1024.9
2022-02-07T00:15:00+09:00,0.3,�k��,0.8,���쐼,-1,90.3,0,0,0,0,0,0,1010,1024.8
2022-02-07T00:16:00+09:00,0.3,�k��,0.8,���쐼,-0.9,90.7,0,0,0,0,0,0,1010,1024.8
2022-02-07T00:17:00+09:00,0.2,�É�,0.8,���쐼,-0.9,90.8,0,0,0,0,0,0,1010,1024.8
2022-02-07T00:18:00+09:00,0.2,�É�,0.8,���쐼,-0.9,90.8,0,0,0,0,0,0,1010,1024.8
2022-02-07T00:19:00+09:00,0.2,�É�,0.8,���쐼,-0.9,90.9,0,0,0,0,0,0,1010,1024.8
2022-02-07T00:20:00+09:00,0.2,�É�,0.8,���쐼,-0.8,91,0,0,0,0,0,0,1010,1024.8
2022-02-07T00:21:00+09:00,0.2,�É�,0.8,���쐼,-0.8,91.3,0,0,0,0,0,0,1010,1024.8
2022-02-07T00:22:00+09:00,0.1,�É�,0.7,�쐼,-0.7,91.4,0,0,0,0,0,0,1010.1,1024.9
2022-02-07T00:23:00+09:00,0.1,�É�,0.6,��,-0.7,91.4,0,0,0,0,0,0,1010.2,1025
2022-02-07T00:24:00+09:00,0.1,�É�,0.6,��,-0.8,91.2,0,0,0,0,0,0,1010.3,1025.1
2022-02-07T00:25:00+09:00,0.1,�É�,0.6,��,-0.8,91,0,0,0,0,0,0,1010.4,1025.2
2022-02-07T00:26:00+09:00,0.1,�É�,0.6,��,-0.7,91.4,0,0,0,0,0,0,1010.3,1025.1
2022-02-07T00:27:00+09:00,0.1,�É�,0.6,��,-0.8,91.2,0,0,0,0,0,0,1010.3,1025.1
2022-02-07T00:28:00+09:00,0.1,�É�,0.6,��,-0.8,90.7,0,0,0,0,0,0,1010.3,1025.1
2022-02-07T00:29:00+09:00,0.1,�É�,0.6,��,-0.8,90.9,0,0,0,0,0,0,1010.2,1025
2022-02-07T00:30:00+09:00,0.1,�É�,0.6,��,-0.8,90.9,0,0,0,0,0,0,1010.2,1025
2022-02-07T00:31:00+09:00,0.1,�É�,0.6,��,-0.8,91.1,0,0,0,0,0,0,1010.2,1025
2022-02-07T00:32:00+09:00,0.1,�É�,0.6,��,-0.7,91.3,0,0,0,0,0,0,1010.2,1025
2022-02-07T00:33:00+09:00,0.1,�É�,0.6,�쐼,-0.6,91.7,0,0,0,0,0,0,1010.2,1025
2022-02-07T00:34:00+09:00,0.1,�É�,0.8,�쐼,-0.8,91.1,0,0,0,0,0,0,1010.2,1025
2022-02-07T00:35:00+09:00,0.1,�É�,0.8,�쐼,-0.9,90.5,0,0,0,0,0,0,1010.2,1025
2022-02-07T00:36:00+09:00,0.1,�É�,0.8,�쐼,-0.8,90.7,0,0,0,0,0,0,1010.3,1025.1
2022-02-07T00:37:00+09:00,0.1,�É�,0.8,�쐼,-0.8,90.8,0,0,0,0,0,0,1010.3,1025.1
2022-02-07T00:38:00+09:00,0.2,�É�,0.8,�쐼,-0.5,91.7,0,0,0,0,0,0,1010.3,1025.1
2022-02-07T00:39:00+09:00,0.2,�É�,0.8,�쐼,-0.7,91.4,0,0,0,0,0,0,1010.3,1025.1
2022-02-07T00:40:00+09:00,0.2,�É�,0.8,�쐼,-0.7,90.7,0,0,0,0,0,0,1010.3,1025.1
2022-02-07T00:41:00+09:00,0.2,�É�,0.8,�쐼,-0.8,91.1,0,0,0,0,0,0,1010.3,1025.1
2022-02-07T00:42:00+09:00,0.2,�É�,0.8,�쐼,-0.8,90.3,0,0,0,0,0,0,1010.3,1025.1
2022-02-07T00:43:00+09:00,0.2,�É�,0.8,�쐼,-0.9,90.3,0,0,0,0,0,0,1010.3,1025.1
2022-02-07T00:44:00+09:00,0.2,�É�,0.8,��쐼,-0.8,90.7,0,0,0,0,0,0,1010.4,1025.2
2022-02-07T00:45:00+09:00,0.2,�É�,0.8,��쐼,-0.6,91,0,0,0,0,0,0,1010.4,1025.2
2022-02-07T00:46:00+09:00,0.2,�É�,0.8,��쐼,-0.5,91.4,0,0,0,0,0,0,1010.5,1025.3
2022-02-07T00:47:00+09:00,0.2,�É�,0.8,��쐼,-0.6,91.4,0,0,0,0,0,0,1010.6,1025.4
2022-02-07T00:48:00+09:00,0.2,�É�,0.8,��쐼,-0.5,91,0,0,0,0,0,0,1010.6,1025.4
2022-02-07T00:49:00+09:00,0.2,�É�,0.8,��쐼,-0.8,90.8,0,0,0,0,0,0,1010.7,1025.5
2022-02-07T00:50:00+09:00,0.2,�É�,0.8,��쐼,-0.7,90.3,0,0,0,0,0,0,1010.6,1025.4
2022-02-07T00:51:00+09:00,0.3,�쐼,0.8,��쐼,-0.6,90.9,0,0,0,0,0,0,1010.6,1025.4
2022-02-07T00:52:00+09:00,0.3,�쐼,0.8,��쐼,-0.8,90.7,0,0,0,0,0,0,1010.5,1025.3
2022-02-07T00:53:00+09:00,0.3,��쐼,0.8,��쐼,-0.9,90,0,0,0,0,0,0,1010.5,1025.3
2022-02-07T00:54:00+09:00,0.3,��쐼,1,��쐼,-0.8,90.1,0,0,0,0,0,0,1010.4,1025.2
2022-02-07T00:55:00+09:00,0.3,��쐼,1,��쐼,-0.8,90.2,0,0,0,0,0,0,1010.4,1025.2
2022-02-07T00:56:00+09:00,0.3,��쐼,1.3,��,-0.8,90,0,0,0,0,0,0,1010.5,1025.3
2022-02-07T00:57:00+09:00,0.4,��쐼,1.3,��,-0.6,90.4,0,0,0,0,0,0,1010.5,1025.3
2022-02-07T00:58:00+09:00,0.4,��쐼,1.3,��,-0.7,90.4,0,0,0,0,0,0,1010.6,1025.4
2022-02-07T00:59:00+09:00,0.4,��쐼,1.3,��,-0.6,90.2,0,0,0,0,0,0,1010.5,1025.3
2022-02-07T01:00:00+09:00,0.5,��쐼,1.3,��,-0.7,89.6,0,0,0,0,0,0,1010.6,1025.4
2022-02-07T01:01:00+09:00,0.5,��쐼,1.3,��,-0.8,88.7,0,0,0,0,0,0,1010.5,1025.3
2022-02-07T01:02:00+09:00,0.5,��쐼,1.3,��,-0.8,88.4,0,0,0,0,0,0,1010.5,1025.3
2022-02-07T01:03:00+09:00,0.5,��쐼,1.3,��,-0.9,87.8,0,0,0,0,0,0,1010.5,1025.3
2022-02-07T01:04:00+09:00,0.5,��쐼,1.3,��,-0.9,87.3,0,0,0,0,0,0,1010.5,1025.3
2022-02-07T01:05:00+09:00,0.5,�쐼,1.3,��,-0.9,87.1,0,0,0,0,0,0,1010.5,1025.3
2022-02-07T01:06:00+09:00,0.5,�쐼,1.1,��쐼,-0.8,87.3,0,0,0,0,0,0,1010.5,1025.3
2022-02-07T01:07:00+09:00,0.4,��쐼,1.1,��쐼,-0.5,87.7,0,0,0,0,0,0,1010.5,1025.3
2022-02-07T01:08:00+09:00,0.4,��쐼,1.1,��쐼,-0.6,87.3,0,0,0,0,0,0,1010.5,1025.3
2022-02-07T01:09:00+09:00,0.3,��쐼,1.1,��쐼,-0.6,86.8,0,0,0,0,0,0,1010.5,1025.3
2022-02-07T01:10:00+09:00,0.3,��쐼,1.1,��쐼,-0.6,86.6,0,0,0,0,0,0,1010.5,1025.3
2022-02-07T01:11:00+09:00,0.2,�É�,0.9,��,-0.6,86.4,0,0,0,0,0,0,1010.5,1025.3
2022-02-07T01:12:00+09:00,0.2,�É�,0.9,��,-0.5,86.7,0,0,0,0,0,0,1010.6,1025.4
2022-02-07T01:13:00+09:00,0.1,�É�,0.9,��,-0.5,86.6,0,0,0,0,0,0,1010.6,1025.4
2022-02-07T01:14:00+09:00,0.1,�É�,0.8,��,-0.7,86.3,0,0,0,0,0,0,1010.5,1025.3
2022-02-07T01:15:00+09:00,0.1,�É�,0.8,��,-0.8,86.2,0,0,0,0,0,0,1010.5,1025.3
2022-02-07T01:16:00+09:00,0.1,�É�,0.8,��,-0.8,86.3,0,0,0,0,0,0,1010.6,1025.4
2022-02-07T01:17:00+09:00,0,�É�,0.4,�k,-0.7,86.5,0,0,0,0,0,0,1010.6,1025.4
2022-02-07T01:18:00+09:00,0,�É�,0.4,�k,-0.5,87.5,0,0,0,0,0,0,1010.6,1025.4
2022-02-07T01:19:00+09:00,0,�É�,0.4,�k,-0.5,87.7,0,0,0,0,0,0,1010.6,1025.4
2022-02-07T01:20:00+09:00,0.1,�É�,0.7,�쐼,-0.4,88.1,0,0,0,0,0,0,1010.6,1025.4
2022-02-07T01:21:00+09:00,0.1,�É�,1,�쐼,-0.4,87.9,0,0,0,0,0,0,1010.6,1025.4
2022-02-07T01:22:00+09:00,0.2,�É�,1.1,��쐼,-0.4,88.3,0,0,0,0,0,0,1010.6,1025.4
2022-02-07T01:23:00+09:00,0.2,�É�,1.1,��쐼,-0.7,86.8,0,0,0,0,0,0,1010.6,1025.4
2022-02-07T01:24:00+09:00,0.3,��,1.1,��쐼,-0.5,86.8,0,0,0,0,0,0,1010.6,1025.4
2022-02-07T01:25:00+09:00,0.3,�쐼,1.1,��쐼,-0.9,86.5,0,0,0,0,0,0,1010.6,1025.4
2022-02-07T01:26:00+09:00,0.3,�쐼,1.1,��쐼,-0.9,85.8,0,0,0,0,0,0,1010.7,1025.5
2022-02-07T01:27:00+09:00,0.3,�쐼,1.1,��쐼,-0.8,86.4,0,0,0,0,0,0,1010.7,1025.5
2022-02-07T01:28:00+09:00,0.3,�쐼,1.1,��쐼,-0.8,86.4,0,0,0,0,0,0,1010.7,1025.5
2022-02-07T01:29:00+09:00,0.3,�쐼,1.1,��쐼,-0.7,86.9,0,0,0,0,0,0,1010.7,1025.5
2022-02-07T01:30:00+09:00,0.3,�쐼,1.1,��쐼,-0.4,87.5,0,0,0,0,0,0,1010.6,1025.4
2022-02-07T01:31:00+09:00,0.2,�É�,1.1,��쐼,-0.3,87.9,0,0,0,0,0,0,1010.6,1025.4
2022-02-07T01:32:00+09:00,0.2,�É�,0.9,�쐼,-0.4,87.8,0,0,0,0,0,0,1010.6,1025.4
2022-02-07T01:33:00+09:00,0.2,�É�,0.7,��쐼,-0.6,86.9,0,0,0,0,0,0,1010.5,1025.3
2022-02-07T01:34:00+09:00,0.2,�É�,0.9,��쐼,-0.7,86.1,0,0,0,0,0,0,1010.5,1025.3
2022-02-07T01:35:00+09:00,0.2,�É�,0.9,��쐼,-0.9,85.6,0,0,0,0,0,0,1010.4,1025.2
2022-02-07T01:36:00+09:00,0.2,�É�,0.9,��쐼,-0.9,85.5,0,0,0,0,0,0,1010.5,1025.3
2022-02-07T01:37:00+09:00,0.2,�É�,0.9,��쐼,-0.9,85.8,0,0,0,0,0,0,1010.5,1025.3
2022-02-07T01:38:00+09:00,0.2,�É�,0.9,��쐼,-0.7,86.8,0,0,0,0,0,0,1010.5,1025.3
2022-02-07T01:39:00+09:00,0.2,�É�,0.9,��쐼,-0.9,86.7,0,0,0,0,0,0,1010.6,1025.4
2022-02-07T01:40:00+09:00,0.2,�É�,0.9,��쐼,-0.9,86.6,0,0,0,0,0,0,1010.7,1025.5
2022-02-07T01:41:00+09:00,0.2,�É�,0.9,��쐼,-0.6,87.3,0,0,0,0,0,0,1010.6,1025.4
2022-02-07T01:42:00+09:00,0.2,�É�,0.9,��쐼,-0.8,87.5,0,0,0,0,0,0,1010.6,1025.4
2022-02-07T01:43:00+09:00,0.2,�É�,0.9,��쐼,-0.8,86.9,0,0,0,0,0,0,1010.6,1025.4
2022-02-07T01:44:00+09:00,0.2,�É�,1.1,���쐼,-0.8,87,0,0,0,0,0,0,1010.6,1025.4
2022-02-07T01:45:00+09:00,0.4,�쐼,1.4,�쐼,-1,86.7,0,0,0,0,0,0,1010.7,1025.5
2022-02-07T01:46:00+09:00,0.4,�쐼,1.4,�쐼,-1.1,86.3,0,0,0,0,0,0,1010.7,1025.5
2022-02-07T01:47:00+09:00,0.6,�쐼,1.4,�쐼,-1.1,86.4,0,0,0,0,0,0,1010.7,1025.5
2022-02-07T01:48:00+09:00,0.7,�쐼,1.5,���쐼,-1.1,86.4,0,0,0,0,0,0,1010.6,1025.4
2022-02-07T01:49:00+09:00,0.7,�쐼,1.5,���쐼,-1,86.9,0,0,0,0,0,0,1010.6,1025.4
2022-02-07T01:50:00+09:00,0.8,�쐼,1.5,���쐼,-0.8,88,0,0,0,0,0,0,1010.6,1025.4
2022-02-07T01:51:00+09:00,0.8,�쐼,1.5,���쐼,-0.8,88.1,0,0,0,0,0,0,1010.7,1025.5
2022-02-07T01:52:00+09:00,0.9,���쐼,1.5,���쐼,-0.8,88.1,0,0,0,0,0,0,1010.7,1025.5
2022-02-07T01:53:00+09:00,0.9,���쐼,1.5,���쐼,-0.9,87.9,0,0,0,0,0,0,1010.7,1025.5
2022-02-07T01:54:00+09:00,0.8,���쐼,1.5,���쐼,-1.1,87.3,0,0,0,0,0,0,1010.6,1025.4
2022-02-07T01:55:00+09:00,0.8,���쐼,1.5,���쐼,-1.1,87.6,0,0,0,0,0,0,1010.6,1025.4
2022-02-07T01:56:00+09:00,0.8,���쐼,1.5,���쐼,-1.1,87.9,0,0,0,0,0,0,1010.7,1025.5
2022-02-07T01:57:00+09:00,0.7,���쐼,1.5,���쐼,-1.2,88.1,0,0,0,0,0,0,1010.7,1025.5
2022-02-07T01:58:00+09:00,0.7,���쐼,1.4,���쐼,-1.1,88.6,0,0,0,0,0,0,1010.7,1025.5
2022-02-07T01:59:00+09:00,0.6,���쐼,1.4,���쐼,-1,89.2,0,0,0,0,0,0,1010.8,1025.6
2022-02-07T02:00:00+09:00,0.6,���쐼,1.4,���쐼,-0.9,89.8,0,0,0,0,0,0,1010.8,1025.6
2022-02-07T02:01:00+09:00,0.6,�쐼,1.4,���쐼,-1,89.6,0,0,0,0,0,0,1010.8,1025.6
2022-02-07T02:02:00+09:00,0.5,�쐼,1.4,���쐼,-1,89.7,0,0,0,0,0,0,1010.8,1025.6
2022-02-07T02:03:00+09:00,0.5,�쐼,1.4,���쐼,-0.8,90.4,0,0,0,0,0,0,1010.8,1025.6
2022-02-07T02:04:00+09:00,0.5,���쐼,1.4,���쐼,-0.8,90.7,0,0,0,0,0,0,1010.8,1025.6
2022-02-07T02:05:00+09:00,0.4,���쐼,1.3,���쐼,-1,90.2,0,0,0,0,0,0,1010.8,1025.6
2022-02-07T02:06:00+09:00,0.4,�쐼,1.2,���쐼,-1.1,89.8,0,0,0,0,0,0,1010.9,1025.7
2022-02-07T02:07:00+09:00,0.4,�쐼,0.9,���쐼,-0.9,90.1,0,0,0,0,0,0,1010.9,1025.7
2022-02-07T02:08:00+09:00,0.4,�쐼,0.9,���쐼,-0.8,91.3,0,0,0,0,0,0,1011,1025.8
2022-02-07T02:09:00+09:00,0.3,�쐼,0.9,���쐼,-0.8,90.9,0,0,0,0,0,0,1011,1025.8
2022-02-07T02:10:00+09:00,0.3,�쐼,0.9,���쐼,-0.8,91.1,0,0,0,0,0,0,1011.1,1025.9
2022-02-07T02:11:00+09:00,0.3,���쐼,0.9,���쐼,-0.9,90.9,0,0,0,0,0,0,1011,1025.8
2022-02-07T02:12:00+09:00,0.2,�É�,0.9,���쐼,-0.9,90.5,0,0,0,0,0,0,1011.1,1025.9
2022-02-07T02:13:00+09:00,0.2,�É�,0.9,���쐼,-1,90.7,0,0,0,0,0,0,1011.1,1025.9
2022-02-07T02:14:00+09:00,0.2,�É�,0.8,�쐼,-1,90.5,0,0,0,0,0,0,1011.1,1025.9
2022-02-07T02:15:00+09:00,0.2,�É�,0.8,�쐼,-1,90.6,0,0,0,0,0,0,1011.1,1025.9
2022-02-07T02:16:00+09:00,0.1,�É�,0.8,�쐼,-1,90.7,0,0,0,0,0,0,1011,1025.8
2022-02-07T02:17:00+09:00,0.1,�É�,0.7,�쐼,-1.1,90.9,0,0,0,0,0,0,1011,1025.8
2022-02-07T02:18:00+09:00,0.1,�É�,0.7,�쐼,-1,90.8,0,0,0,0,0,0,1011,1025.8
2022-02-07T02:19:00+09:00,0,�É�,0.3,���k��,-1.1,90.9,0,0,0,0,0,0,1010.9,1025.7
2022-02-07T02:20:00+09:00,0.1,�É�,0.4,���k��,-1.1,91,0,0,0,0,0,0,1010.9,1025.7
2022-02-07T02:21:00+09:00,0.1,�É�,0.4,���k��,-1.2,91,0,0,0,0,0,0,1010.8,1025.6
2022-02-07T02:22:00+09:00,0.1,�É�,0.4,���k��,-1.3,90.8,0,0,0,0,0,0,1010.8,1025.6
2022-02-07T02:23:00+09:00,0.1,�É�,0.4,���k��,-1.2,91,0,0,0,0,0,0,1010.8,1025.6
2022-02-07T02:24:00+09:00,0.1,�É�,0.5,�k��,-1.1,91.2,0,0,0,0,0,0,1010.8,1025.6
2022-02-07T02:25:00+09:00,0.1,�É�,0.5,�k��,-1.1,91.6,0,0,0,0,0,0,1010.8,1025.6
2022-02-07T02:26:00+09:00,0.1,�É�,0.5,�k��,-1.1,91.5,0,0,0,0,0,0,1010.8,1025.6
2022-02-07T02:27:00+09:00,0.1,�É�,0.5,�k��,-1.3,91.1,0,0,0,0,0,0,1010.7,1025.5
2022-02-07T02:28:00+09:00,0.1,�É�,0.5,�k��,-1.3,90.8,0,0,0,0,0,0,1010.7,1025.5
2022-02-07T02:29:00+09:00,0.1,�É�,0.5,�k��,-1.1,91.6,0,0,0,0,0,0,1010.7,1025.5
2022-02-07T02:30:00+09:00,0.1,�É�,0.5,�k��,-1.1,92.2,0,0,0,0,0,0,1010.7,1025.5
2022-02-07T02:31:00+09:00,0.1,�É�,0.5,�k��,-1.2,91.9,0,0,0,0,0,0,1010.6,1025.4
2022-02-07T02:32:00+09:00,0.1,�É�,0.5,�k��,-1.2,91.7,0,0,0,0,0,0,1010.6,1025.4
2022-02-07T02:33:00+09:00,0.1,�É�,0.5,�k��,-1.2,91.4,0,0,0,0,0,0,1010.6,1025.4
2022-02-07T02:34:00+09:00,0,�É�,0.4,�k��,-1.3,91.3,0,0,0,0,0,0,1010.6,1025.4
2022-02-07T02:35:00+09:00,0.1,�É�,0.4,���k��,-1.4,91.1,0,0,0,0,0,0,1010.6,1025.4
2022-02-07T02:36:00+09:00,0.1,�É�,0.4,���k��,-1.2,91.4,0,0,0,0,0,0,1010.6,1025.4
2022-02-07T02:37:00+09:00,0.1,�É�,0.4,���k��,-1.2,91.8,0,0,0,0,0,0,1010.6,1025.4
2022-02-07T02:38:00+09:00,0.2,�É�,0.6,���k��,-1.1,91.6,0,0,0,0,0,0,1010.5,1025.3
2022-02-07T02:39:00+09:00,0.2,�É�,0.6,���k��,-1.1,92,0,0,0,0,0,0,1010.5,1025.3
2022-02-07T02:40:00+09:00,0.2,�É�,0.7,���k��,-1.3,91.6,0,0,0,0,0,0,1010.5,1025.3
2022-02-07T02:41:00+09:00,0.3,���k��,0.7,���k��,-1.4,90.7,0,0,0,0,0,0,1010.5,1025.3
2022-02-07T02:42:00+09:00,0.3,���k��,0.7,���k��,-1.4,90.5,0,0,0,0,0,0,1010.5,1025.3
2022-02-07T02:43:00+09:00,0.3,���k��,0.7,���k��,-1.2,90.8,0,0,0,0,0,0,1010.5,1025.3
2022-02-07T02:44:00+09:00,0.3,���k��,0.7,���k��,-1.2,91.4,0,0,0,0,0,0,1010.5,1025.3
2022-02-07T02:45:00+09:00,0.3,���k��,0.7,���k��,-1.3,91,0,0,0,0,0,0,1010.4,1025.2
2022-02-07T02:46:00+09:00,0.3,���k��,0.7,���k��,-1.4,90.9,0,0,0,0,0,0,1010.4,1025.2
2022-02-07T02:47:00+09:00,0.2,�É�,0.7,���k��,-1.4,90.5,0,0,0,0,0,0,1010.3,1025.1
2022-02-07T02:48:00+09:00,0.2,�É�,0.7,���k��,-1.5,90.3,0,0,0,0,0,0,1010.3,1025.1
2022-02-07T02:49:00+09:00,0.2,�É�,0.7,���k��,-1.4,90.3,0,0,0,0,0,0,1010.3,1025.1
2022-02-07T02:50:00+09:00,0.2,�É�,0.6,���k��,-1.4,90.5,0,0,0,0,0,0,1010.3,1025.1
2022-02-07T02:51:00+09:00,0.1,�É�,0.6,���k��,-1.4,90.5,0,0,0,0,0,0,1010.3,1025.1
2022-02-07T02:52:00+09:00,0.1,�É�,0.5,��,-1.4,90.6,0,0,0,0,0,0,1010.2,1025
2022-02-07T02:53:00+09:00,0.1,�É�,0.5,��,-1.6,90.3,0,0,0,0,0,0,1010.3,1025.1
2022-02-07T02:54:00+09:00,0.1,�É�,0.6,��쐼,-1.5,90.3,0,0,0,0,0,0,1010.2,1025
2022-02-07T02:55:00+09:00,0.2,�É�,1,��쐼,-1.6,90.5,0,0,0,0,0,0,1010.2,1025
2022-02-07T02:56:00+09:00,0.2,�É�,1,��쐼,-1.3,90.7,0,0,0,0,0,0,1010.2,1025
2022-02-07T02:57:00+09:00,0.3,��,1,��쐼,-1.5,90.9,0,0,0,0,0,0,1010.2,1025
2022-02-07T02:58:00+09:00,0.3,��쐼,1.2,�쐼,-1.6,90.5,0,0,0,0,0,0,1010.2,1025
2022-02-07T02:59:00+09:00,0.4,��쐼,1.2,�쐼,-1.4,90.8,0,0,0,0,0,0,1010.2,1025
2022-02-07T03:00:00+09:00,0.5,��쐼,1.3,��쐼,-1.4,91.2,0,0,0,0,0,0,1010.3,1025.1
2022-02-07T03:01:00+09:00,0.5,��쐼,1.3,��쐼,-1.4,91.2,0,0,0,0,0,0,1010.4,1025.2
2022-02-07T03:02:00+09:00,0.7,��쐼,1.8,��,-1.5,90.8,0,0,0,0,0,0,1010.3,1025.1
2022-02-07T03:03:00+09:00,0.8,��쐼,1.8,��,-1.6,90.4,0,0,0,0,0,0,1010.4,1025.2
2022-02-07T03:04:00+09:00,0.8,��쐼,1.8,��,-1.5,90.8,0,0,0,0,0,0,1010.4,1025.2
2022-02-07T03:05:00+09:00,0.8,�쐼,1.8,��,-1.6,90.7,0,0,0,0,0,0,1010.4,1025.2
2022-02-07T03:06:00+09:00,0.9,�쐼,1.8,��,-1.7,90.3,0,0,0,0,0,0,1010.4,1025.2
2022-02-07T03:07:00+09:00,0.8,�쐼,1.8,��,-1.7,90.2,0,0,0,0,0,0,1010.3,1025.1
2022-02-07T03:08:00+09:00,0.8,��쐼,1.8,��,-1.4,91.3,0,0,0,0,0,0,1010.3,1025.1
2022-02-07T03:09:00+09:00,0.7,��쐼,1.8,��,-1.3,91.6,0,0,0,0,0,0,1010.3,1025.1
2022-02-07T03:10:00+09:00,0.6,�쐼,1.8,��,-1.4,91.2,0,0,0,0,0,0,1010.3,1025.1
2022-02-07T03:11:00+09:00,0.5,��쐼,1.8,��,-1.6,90.7,0,0,0,0,0,0,1010.4,1025.2
2022-02-07T03:12:00+09:00,0.4,��쐼,1.5,��쐼,-1.7,90.2,0,0,0,0,0,0,1010.4,1025.2
2022-02-07T03:13:00+09:00,0.3,��쐼,1.4,�쐼,-1.7,90.3,0,0,0,0,0,0,1010.5,1025.3
2022-02-07T03:14:00+09:00,0.3,��,1.4,�쐼,-1.6,90.5,0,0,0,0,0,0,1010.4,1025.2
2022-02-07T03:15:00+09:00,0.2,�É�,1.4,�쐼,-1.6,90.6,0,0,0,0,0,0,1010.4,1025.2
2022-02-07T03:16:00+09:00,0.2,�É�,0.6,�쓌,-1.7,90.5,0,0,0,0,0,0,1010.4,1025.2
2022-02-07T03:17:00+09:00,0.2,�É�,0.6,�쓌,-1.7,90.2,0,0,0,0,0,0,1010.4,1025.2
2022-02-07T03:18:00+09:00,0.2,�É�,0.7,��,-1.8,90.3,0,0,0,0,0,0,1010.3,1025.1
2022-02-07T03:19:00+09:00,0.2,�É�,0.7,��,-1.8,90.3,0,0,0,0,0,0,1010.3,1025.1
2022-02-07T03:20:00+09:00,0.2,�É�,0.7,��,-1.8,90.3,0,0,0,0,0,0,1010.3,1025.1
2022-02-07T03:21:00+09:00,0.2,�É�,0.7,��,-1.8,90.3,0,0,0,0,0,0,1010.4,1025.2
2022-02-07T03:22:00+09:00,0.2,�É�,0.7,��,-1.8,90.5,0,0,0,0,0,0,1010.3,1025.1
2022-02-07T03:23:00+09:00,0.2,�É�,0.7,��,-1.8,90.5,0,0,0,0,0,0,1010.4,1025.2
2022-02-07T03:24:00+09:00,0.2,�É�,0.7,��,-1.7,90.5,0,0,0,0,0,0,1010.4,1025.2
2022-02-07T03:25:00+09:00,0.2,�É�,0.7,��,-1.4,91.4,0,0,0,0,0,0,1010.4,1025.2
2022-02-07T03:26:00+09:00,0.1,�É�,0.7,��,-1.6,91.1,0,0,0,0,0,0,1010.4,1025.2
2022-02-07T03:27:00+09:00,0.1,�É�,0.7,��,-1.5,90.9,0,0,0,0,0,0,1010.3,1025.1
2022-02-07T03:28:00+09:00,0.1,�É�,0.5,�쐼,-1.4,90.9,0,0,0,0,0,0,1010.3,1025.1
2022-02-07T03:29:00+09:00,0.1,�É�,0.5,�쐼,-1.6,90.9,0,0,0,0,0,0,1010.3,1025.1
2022-02-07T03:30:00+09:00,0.1,�É�,0.5,�쐼,-1.7,90.1,0,0,0,0,0,0,1010.3,1025.1
2022-02-07T03:31:00+09:00,0.1,�É�,0.6,�k��,-1.6,90.4,0,0,0,0,0,0,1010.2,1025
2022-02-07T03:32:00+09:00,0.1,�É�,0.6,�k��,-1.7,90.1,0,0,0,0,0,0,1010.2,1025
2022-02-07T03:33:00+09:00,0.1,�É�,0.6,�k��,-1.6,90.4,0,0,0,0,0,0,1010.2,1025
2022-02-07T03:34:00+09:00,0.1,�É�,0.6,�k��,-1.5,90.9,0,0,0,0,0,0,1010.3,1025.1
2022-02-07T03:35:00+09:00,0.1,�É�,0.6,�k��,-1.5,90.6,0,0,0,0,0,0,1010.2,1025
2022-02-07T03:36:00+09:00,0.1,�É�,0.6,�k��,-1.6,90.2,0,0,0,0,0,0,1010.2,1025
2022-02-07T03:37:00+09:00,0.1,�É�,0.6,�k��,-1.5,90.3,0,0,0,0,0,0,1010.2,1025
2022-02-07T03:38:00+09:00,0.1,�É�,0.6,�k��,-1.4,90.7,0,0,0,0,0,0,1010.2,1025
2022-02-07T03:39:00+09:00,0.1,�É�,0.6,�k��,-1.3,90.8,0,0,0,0,0,0,1010.2,1025
2022-02-07T03:40:00+09:00,0.1,�É�,0.6,�k��,-1.5,90.4,0,0,0,0,0,0,1010.2,1025
2022-02-07T03:41:00+09:00,0.1,�É�,0.4,�k�k��,-1.5,89.9,0,0,0,0,0,0,1010.2,1025
2022-02-07T03:42:00+09:00,0.1,�É�,0.4,�k�k��,-1.5,89.9,0,0,0,0,0,0,1010.2,1025
2022-02-07T03:43:00+09:00,0.1,�É�,0.3,���k��,-1.5,89.7,0,0,0,0,0,0,1010.2,1025
2022-02-07T03:44:00+09:00,0.1,�É�,0.3,���k��,-1.5,90,0,0,0,0,0,0,1010.1,1024.9
2022-02-07T03:45:00+09:00,0.1,�É�,0.3,���k��,-1.3,90.3,0,0,0,0,0,0,1010.2,1025
2022-02-07T03:46:00+09:00,0.1,�É�,0.3,���k��,-1.4,90.1,0,0,0,0,0,0,1010.2,1025
2022-02-07T03:47:00+09:00,0.1,�É�,0.3,���k��,-1.5,89.6,0,0,0,0,0,0,1010.2,1025
2022-02-07T03:48:00+09:00,0.1,�É�,0.5,���쐼,-1.3,89.6,0,0,0,0,0,0,1010.2,1025
2022-02-07T03:49:00+09:00,0.1,�É�,0.6,�쐼,-1.1,90.5,0,0,0,0,0,0,1010.2,1025
2022-02-07T03:50:00+09:00,0.1,�É�,0.6,�쐼,-1,90.7,0,0,0,0,0,0,1010.3,1025.1
2022-02-07T03:51:00+09:00,0.1,�É�,0.6,�쐼,-1.2,90.1,0,0,0,0,0,0,1010.3,1025.1
2022-02-07T03:52:00+09:00,0.1,�É�,0.6,�쐼,-1.3,89.5,0,0,0,0,0,0,1010.4,1025.2
2022-02-07T03:53:00+09:00,0.1,�É�,0.6,�쐼,-1.3,89.4,0,0,0,0,0,0,1010.4,1025.2
2022-02-07T03:54:00+09:00,0.1,�É�,0.6,�쐼,-1.2,89.6,0,0,0,0,0,0,1010.4,1025.2
2022-02-07T03:55:00+09:00,0.1,�É�,0.6,�쐼,-1.3,89.5,0,0,0,0,0,0,1010.4,1025.2
2022-02-07T03:56:00+09:00,0.2,�É�,0.6,�쐼,-1.4,89.1,0,0,0,0,0,0,1010.4,1025.2
2022-02-07T03:57:00+09:00,0.2,�É�,0.6,�쐼,-1.4,89.1,0,0,0,0,0,0,1010.4,1025.2
2022-02-07T03:58:00+09:00,0.2,�É�,0.6,�쐼,-1.3,89.4,0,0,0,0,0,0,1010.5,1025.3
2022-02-07T03:59:00+09:00,0.2,�É�,0.7,�쐼,-1.3,89.6,0,0,0,0,0,0,1010.5,1025.3
2022-02-07T04:00:00+09:00,0.2,�É�,0.7,�쐼,-1.1,89.6,0,0,0,0,0,0,1010.5,1025.3
2022-02-07T04:01:00+09:00,0.2,�É�,0.7,�쐼,-1.2,89.8,0,0,0,0,0,0,1010.5,1025.3
2022-02-07T04:02:00+09:00,0.2,�É�,0.7,�쐼,-0.8,90,0,0,0,0,0,0,1010.5,1025.3
2022-02-07T04:03:00+09:00,0.3,�쐼,1,��쐼,-0.9,90.4,0,0,0,0,0,0,1010.6,1025.4
2022-02-07T04:04:00+09:00,0.3,�쐼,1,��쐼,-1,89.8,0,0,0,0,0,0,1010.6,1025.4
2022-02-07T04:05:00+09:00,0.3,��쐼,1,��쐼,-1.2,88.4,0,0,0,0,0,0,1010.5,1025.3
2022-02-07T04:06:00+09:00,0.3,��쐼,1,��쐼,-1.1,88.5,0,0,0,0,0,0,1010.5,1025.3
2022-02-07T04:07:00+09:00,0.4,��쐼,1,��쐼,-1.3,88.3,0,0,0,0,0,0,1010.5,1025.3
2022-02-07T04:08:00+09:00,0.4,�쐼,1.2,��쐼,-1.4,87.6,0,0,0,0,0,0,1010.5,1025.3
2022-02-07T04:09:00+09:00,0.5,��쐼,1.3,��쐼,-1.4,87.8,0,0,0,0,0,0,1010.4,1025.2
2022-02-07T04:10:00+09:00,0.6,��쐼,1.3,��쐼,-1.4,88,0,0,0,0,0,0,1010.4,1025.2
2022-02-07T04:11:00+09:00,0.6,��쐼,1.3,��쐼,-1.5,88,0,0,0,0,0,0,1010.3,1025.1
2022-02-07T04:12:00+09:00,0.7,��쐼,1.3,��쐼,-1.6,87.5,0,0,0,0,0,0,1010.3,1025.1
2022-02-07T04:13:00+09:00,0.7,��쐼,1.5,��,-1.7,87.3,0,0,0,0,0,0,1010.3,1025.1
2022-02-07T04:14:00+09:00,0.7,��쐼,1.5,��,-1.7,87.5,0,0,0,0,0,0,1010.3,1025.1
2022-02-07T04:15:00+09:00,0.8,��쐼,1.5,��,-1.7,87.9,0,0,0,0,0,0,1010.3,1025.1
2022-02-07T04:16:00+09:00,0.9,��쐼,1.8,��쐼,-1.7,88.3,0,0,0,0,0,0,1010.3,1025.1
2022-02-07T04:17:00+09:00,1,��쐼,1.8,��쐼,-1.7,88.1,0,0,0,0,0,0,1010.3,1025.1
2022-02-07T04:18:00+09:00,1,��쐼,1.8,��쐼,-1.7,88.4,0,0,0,0,0,0,1010.3,1025.1
2022-02-07T04:19:00+09:00,1,��쐼,1.8,��쐼,-1.8,88.5,0,0,0,0,0,0,1010.3,1025.1
2022-02-07T04:20:00+09:00,0.9,��쐼,1.8,��쐼,-1.5,89.1,0,0,0,0,0,0,1010.3,1025.1
2022-02-07T04:21:00+09:00,0.9,��쐼,1.8,��쐼,-1.4,89.9,0,0,0,0,0,0,1010.4,1025.2
2022-02-07T04:22:00+09:00,0.9,��쐼,1.8,��쐼,-1.4,90.1,0,0,0,0,0,0,1010.4,1025.2
2022-02-07T04:23:00+09:00,0.9,��쐼,1.8,��쐼,-1.5,89.5,0,0,0,0,0,0,1010.4,1025.2
2022-02-07T04:24:00+09:00,0.7,��쐼,1.8,��쐼,-1.4,89.6,0,0,0,0,0,0,1010.3,1025.1
2022-02-07T04:25:00+09:00,0.7,��쐼,1.8,��쐼,-1.4,89.6,0,0,0,0,0,0,1010.4,1025.2
2022-02-07T04:26:00+09:00,0.6,��쐼,1.8,��쐼,-1.5,89.4,0,0,0,0,0,0,1010.4,1025.2
2022-02-07T04:27:00+09:00,0.5,��쐼,1.7,��,-1.7,88.9,0,0,0,0,0,0,1010.4,1025.2
2022-02-07T04:28:00+09:00,0.3,��,1.3,��쐼,-1.6,88.9,0,0,0,0,0,0,1010.3,1025.1
2022-02-07T04:29:00+09:00,0.3,��,1.1,���쐼,-1.6,89.2,0,0,0,0,0,0,1010.3,1025.1
2022-02-07T04:30:00+09:00,0.3,��,1.1,���쐼,-1.6,89.2,0,0,0,0,0,0,1010.4,1025.2
2022-02-07T04:31:00+09:00,0.2,�É�,0.9,��쐼,-1.5,89.5,0,0,0,0,0,0,1010.4,1025.2
2022-02-07T04:32:00+09:00,0.2,�É�,0.9,�쐼,-1.5,89.6,0,0,0,0,0,0,1010.4,1025.2
2022-02-07T04:33:00+09:00,0.2,�É�,1.2,�쐼,-1.4,89.7,0,0,0,0,0,0,1010.4,1025.2
2022-02-07T04:34:00+09:00,0.3,��,1.4,�쐼,-1.3,89.9,0,0,0,0,0,0,1010.5,1025.3
2022-02-07T04:35:00+09:00,0.3,��,1.4,�쐼,-1.4,89.9,0,0,0,0,0,0,1010.4,1025.2
2022-02-07T04:36:00+09:00,0.4,��,1.4,�쐼,-1.5,89.2,0,0,0,0,0,0,1010.4,1025.2
2022-02-07T04:37:00+09:00,0.4,��쐼,1.4,�쐼,-1.5,89.5,0,0,0,0,0,0,1010.3,1025.1
2022-02-07T04:38:00+09:00,0.4,��쐼,1.4,�쐼,-1.5,89.4,0,0,0,0,0,0,1010.3,1025.1
2022-02-07T04:39:00+09:00,0.5,��쐼,1.4,�쐼,-1.8,88.5,0,0,0,0,0,0,1010.3,1025.1
2022-02-07T04:40:00+09:00,0.5,��쐼,1.4,�쐼,-1.8,88.3,0,0,0,0,0,0,1010.4,1025.2
2022-02-07T04:41:00+09:00,0.5,��쐼,1.4,�쐼,-1.7,88.7,0,0,0,0,0,0,1010.3,1025.1
2022-02-07T04:42:00+09:00,0.5,��쐼,1.4,�쐼,-1.8,89,0,0,0,0,0,0,1010.4,1025.2
2022-02-07T04:43:00+09:00,0.5,��쐼,1.4,�쐼,-1.7,89,0,0,0,0,0,0,1010.5,1025.3
2022-02-07T04:44:00+09:00,0.5,��쐼,1.2,��,-1.4,89.7,0,0,0,0,0,0,1010.5,1025.3
2022-02-07T04:45:00+09:00,0.5,��쐼,1.2,��,-1.5,90.2,0,0,0,0,0,0,1010.6,1025.4
2022-02-07T04:46:00+09:00,0.5,��쐼,1.2,��,-1.7,89.3,0,0,0,0,0,0,1010.6,1025.4
2022-02-07T04:47:00+09:00,0.5,��쐼,1.2,��,-1.8,89.2,0,0,0,0,0,0,1010.6,1025.4
2022-02-07T04:48:00+09:00,0.4,�쐼,1.2,��,-1.8,89.1,0,0,0,0,0,0,1010.6,1025.4
2022-02-07T04:49:00+09:00,0.4,�쐼,1.2,��,-1.7,89.6,0,0,0,0,0,0,1010.6,1025.4
2022-02-07T04:50:00+09:00,0.4,�쐼,1.2,��,-1.7,89.7,0,0,0,0,0,0,1010.6,1025.4
2022-02-07T04:51:00+09:00,0.4,��쐼,1.2,��,-1.8,89.5,0,0,0,0,0,0,1010.6,1025.4
2022-02-07T04:52:00+09:00,0.4,��쐼,1.2,��,-1.9,89.4,0,0,0,0,0,0,1010.5,1025.3
2022-02-07T04:53:00+09:00,0.4,��쐼,1,�쐼,-1.7,89.7,0,0,0,0,0,0,1010.5,1025.3
2022-02-07T04:54:00+09:00,0.3,��쐼,1,�쐼,-1.7,90.2,0,0,0,0,0,0,1010.5,1025.3
2022-02-07T04:55:00+09:00,0.3,��,1,�쐼,-1.7,90.4,0,0,0,0,0,0,1010.5,1025.3
2022-02-07T04:56:00+09:00,0.3,��,1,�쐼,-1.7,90.2,0,0,0,0,0,0,1010.6,1025.4
2022-02-07T04:57:00+09:00,0.4,��,1.2,��쐼,-1.7,90.2,0,0,0,0,0,0,1010.5,1025.3
2022-02-07T04:58:00+09:00,0.4,��,1.2,��쐼,-1.6,90.6,0,0,0,0,0,0,1010.5,1025.3
2022-02-07T04:59:00+09:00,0.4,��,1.2,��쐼,-1.7,90.5,0,0,0,0,0,0,1010.4,1025.2
2022-02-07T05:00:00+09:00,0.5,��,1.5,��쓌,-1.7,90.4,0,0,0,0,0,0,1010.4,1025.2
2022-02-07T05:01:00+09:00,0.5,��,1.5,��쓌,-1.8,90.1,0,0,0,0,0,0,1010.4,1025.2
2022-02-07T05:02:00+09:00,0.5,��,1.5,��쓌,-1.8,90.2,0,0,0,0,0,0,1010.5,1025.3
2022-02-07T05:03:00+09:00,0.5,��,1.5,��쓌,-1.8,90.1,0,0,0,0,0,0,1010.5,1025.3
2022-02-07T05:04:00+09:00,0.6,��,1.5,��쓌,-1.7,90.5,0,0,0,0,0,0,1010.4,1025.2
2022-02-07T05:05:00+09:00,0.6,��쐼,1.7,��쐼,-1.5,91.3,0,0,0,0,0,0,1010.4,1025.2
2022-02-07T05:06:00+09:00,0.7,��쐼,1.7,��쐼,-1.6,91.3,0,0,0,0,0,0,1010.4,1025.2